Location: Avully
(45.9633°N, 6.0228°E)
Time: 01:46:00
(UTC+00:00)

Resurs 1-4 Rocket - Pass Details

Date: 23 May 2024
Orbit: 798 x 813 km, 98.7° (Epoch: 16 June)

Event Time Altitude Azimuth Distance (km) Brightness Sun altitude
Rises 00:26:34 0° 27° (NNE) 3,316 6.7 -22.3°
Reaches altitude 10° 00:29:29 10° 43° (NE) 2,380 5.4 -22.2°
Maximum altitude 00:33:25 21° 92° (E) 1,728 3.9 -22.0°
Enters shadow 00:36:01 15° 128° (SE) 2,035 4.0 -21.9°
